Preview of NWS' New Version of Forecast
This preview is not operational and should not be used for support decisions.
Latest weather observations around

Olathe, Johnson County Executive Airport (KOJC)

Using English Units (Switch to International System of Units)
Date/ Time (CDT) Wind (mph) Vis. (mi) Weather Sky Cond. Temp (°F) Rel. Humidity Wind Chill (°F) Heat Index (°F) Pressure Precip. (in)
Air Dwpt 6 hour Altimeter (inHg) Sea level (inHg) 1 hr 3 hr 6 hr
Max Min
Apr 21 13:53 ENE 9 10 Clear CLR 59 35     41%     30.15 30.14      
Apr 21 12:53 ENE 9 10 Cloudy OVC110 53 32     45%     30.19 30.18     0
Apr 21 11:53 E 7 10 Mostly Cloudy FEW090 BKN110 52 32     46%     30.22 30.22      
Apr 21 10:53 ENE 7 10 Cloudy SCT065 BKN095 OVC110 50 32     50% 47   30.23 30.23 0    
Apr 21 09:53 ENE 6 10 Cloudy OVC090 49 29     46% 46   30.23 30.23      
Apr 21 08:53 NNE 6 10 Cloudy OVC075 48 29     47% 45   30.23 30.22      
Apr 21 07:53 NE 9 10 Cloudy SCT070 OVC085 49 28     44% 45   30.23 30.23      
Apr 21 06:53 ENE 10 10 Cloudy OVC100 49 28     44% 45   30.22 30.21      
Apr 21 05:53 E 8 10 Mostly Clear FEW110 49 27     42% 45   30.23 30.23      
Apr 21 04:53 ENE 6 10 Clear CLR 49 27     42% 46   30.23 30.22      
Apr 21 03:53 E 7 10 Clear CLR 50 26     39% 47   30.24 30.24      
Apr 21 02:53 E 7 10 Clear CLR 50 25     37% 47   30.26 30.26      
Apr 21 01:53 E 7 10 Clear CLR 52 23     32%     30.26 30.26      
Apr 21 00:53 E 11 10 Clear CLR 53 22     29%     30.24 30.23      
Apr 20 23:53 E 11 10 Clear CLR 54 22     28%     30.25 30.24      
Apr 20 22:53 E 10 10 Clear CLR 55 24     30%     30.23 30.23      
Apr 20 21:53 E 11 10 Clear CLR 56 26     31%     30.23 30.22      
Apr 20 20:53 E 10 10 Clear CLR 57 27     31%     30.23 30.23      
Apr 20 19:53 ENE 8 10 Clear CLR 58 30     34%     30.24 30.24      
Apr 20 18:53 ESE 11 10 Clear CLR 60 27     28%     30.23 30.23      
Apr 20 17:53 ESE 13 10 Clear CLR 60 28     29%     30.23 30.23      
Apr 20 16:53 ESE 15 10 Clear CLR 61 27     27%     30.23 30.23      
Apr 20 15:53 SE 13 10 Clear CLR 60 27     28%     30.27 30.27      
Apr 20 14:53 ESE 10 10 Clear CLR 60 28     29%     30.31 30.31      
Apr 20 13:53 ESE 11 10 Clear CLR 59 29     32%     30.35 30.35      
Apr 20 12:53 ESE 14 10 Clear CLR 55 29     37%     30.37 30.37      
Apr 20 11:53 SE 15 10 Clear CLR 55 31     40%     30.4 30.4      
Apr 20 10:53 SE 11 10 Clear CLR 53 33     46%     30.42 30.42      
Apr 20 09:53 SE 14 10 Clear CLR 50 33     52% 45   30.43 30.43      
Apr 20 08:53 SSE 13 10 Clear CLR 47 32     56% 41   30.44 30.45      
Apr 20 07:53 SE 7 10 Clear CLR 41 30     65% 36   30.45 30.45      
Apr 20 06:53 SE 6 10 Clear CLR 39 29     67% 35   30.43 30.43      
Apr 20 05:53 ESE 7 10 Clear CLR 40 29     65% 35   30.41 30.41      
Apr 20 04:53 ESE 6 10 Clear CLR 40 29     65% 36   30.41 30.41      
Apr 20 03:53 ESE 6 10 Clear CLR 41 29     62% 37   30.4 30.4      
Apr 20 02:53 E 5 10 Clear CLR 42 29     59% 39   30.4 30.4      
Apr 20 01:53 E 6 10 Clear CLR 43 29     57% 39   30.4 30.41      
Apr 20 00:53 ESE 5 10 Clear CLR 44 30     58% 41   30.41 30.41      
Apr 19 23:53 ESE 5 10 Clear CLR 45 30     56% 43   30.4 30.41      
Apr 19 22:53 ESE 6 10 Clear CLR 46 30     53% 43   30.4 30.41      
Apr 19 21:53 ESE 6 10 Clear CLR 47 30     52% 44   30.38 30.39      
Apr 19 19:53 E 9 10 Clear CLR 52 29     41%     30.35 30.36      
Apr 19 18:53 E 9 10 Clear CLR 55 30     38%     30.35 30.36      
Apr 19 17:53 5 10 Clear CLR 56 30     37%     30.36 30.36      
Apr 19 16:53 NE 11 10 Clear CLR 57 31     37%     30.38 30.39      
Apr 19 15:53 N 6 10 Clear CLR 56 30     37%     30.41 30.41      
Apr 19 14:53 NE 8 10 Clear CLR 55 31     40%     30.43 30.44      
Apr 19 13:53 NE 10 10 Clear CLR 52 30     43%     30.45 30.46      
Apr 19 12:53 6 10 Clear CLR 49 30     48% 46   30.45 30.47      
Apr 19 11:53 NW 8 10 Mostly Clear FEW035 48 31     51% 44   30.46 30.48      
Apr 19 08:53 NNE 8 10 Mostly Clear FEW016 38 29     70% 32   30.42 30.44      
Apr 19 07:53 N 14 10 Clear CLR 34 28     79% 25   30.39 30.41      
Apr 19 06:53 N 6 10 Clear CLR 33 28     82% 28   30.36 30.38      
Apr 19 05:53 N 11 10 Clear CLR 34 27     75% 26   30.32 30.34      
Apr 19 04:53 NNW 7 10 Cloudy OVC036 37 30     76% 32   30.29 30.3      
Apr 19 03:53 NW 8 10 Cloudy BKN035 OVC048 37 29     72% 31   30.26 30.28      
Apr 19 03:37 NW 7 10 Cloudy SCT029 BKN035 OVC048 37 28     70% 32   30.26        
Apr 19 02:53 NW 9 10 Cloudy BKN029 OVC036 37 28     70% 30   30.24 30.26      
Apr 19 01:53 WNW 8 10 Cloudy OVC031 36 27     70% 30   30.24 30.26      
Apr 18 23:53 NW 6 10 Partly Cloudy SCT048 36 26     67% 31   30.22 30.24      
Apr 18 22:53 NW 7 10 Clear CLR 36 25     64% 30   30.22 30.24      
Apr 18 21:53 NNW 13 10 Clear CLR 39 24     55% 31   30.21 30.23      
Apr 18 20:53 NNW 20 10 Mostly Clear and Windy FEW050 41 25     53% 32   30.18 30.2      
Apr 18 19:53 NNW 18 10 Cloudy BKN045 OVC050 44 29     55% 36   30.14 30.16      
Apr 18 18:53 NW 18 10 Cloudy OVC050 44 28     53% 36   30.12 30.13      
Apr 18 17:53 NNW 13 10 Cloudy OVC050 43 27     53% 36   30.1 30.11      
Apr 18 16:53 NNW 15 10 Cloudy SCT040 OVC049 44 29     55% 37   30.09 30.09      
Apr 18 15:53 NW 22 10 Cloudy and Windy OVC037 43 30     60% 34   30.06 30.06      
Apr 18 14:53 NW 23 10 Cloudy and Windy BKN033 OVC042 44 30     58% 35   30.04 30.04      
Apr 18 13:11 WNW 14 10 Cloudy BKN030 OVC035 44 31     60% 37   29.99        
Apr 18 12:53 WNW 21 10 Cloudy and Windy OVC029 43 32     65% 34   29.98 29.98      
Jun 11 16:53 S 25 10 Clear and Windy CLR 87 70     57%   92 29.81 29.77      
Jun 10 20:53 S 15 10 Clear CLR 79 69     72%   80 29.78 29.74      
Jun 09 23:53 S 7 10 Clear CLR 69 60     73%     29.84 29.8      
Jun 09 06:53 S 3 10 Clear CLR 59 55     87%     29.93 29.9      
Jun 08 02:53 ESE 6 10 Clear CLR 62 50     65%     30.04 30.01      
Jun 07 18:53 ESE 5 10 Clear CLR 76 51     42%   75 30.05 30.02      
Jun 07 17:06 SSE 7 10 Clear CLR 78 50     37%   77 30.06        
Jun 07 07:53 NE 5 10 Clear CLR 65 54     68%     30.11 30.09      
Jun 06 07:53 ENE 10 10 Clear CLR 67 58     73%     30 29.97